CAPE
0 0 0 0 0 0 0 266 1722 1995 1954 1664 1467 1202 1105 993 643 650 457 232 63 65 57 19 14 4 4 2 2 1 8 15
0 0 0 0 0 0 0 13 1553 2045 2215 1775 1524 1354 1318 1217 893 718 583 348 203 208 115 15 12 18 1 0 6 7 2 11
0 0 0 0 0 0 0 0 885 2007 2026 1955 1684 1645 1360 1302 1029 757 714 477 327 301 193 87 13 1 2 18 20 12 7 23
0 0 0 0 0 0 0 0 266 1790 1980 1940 813 990 684 609 701 541 376 424 277 254 182 100 76 42 35 30 19 2 16 24
0 0 0 0 0 0 0 0 0 1703 1947 1848 1499 1535 1253 1072 794 517 218 178 260 212 152 115 56 113 131 37 7 0 0 1
0 0 0 0 0 0 0 0 5 1489 1900 1673 1346 1387 1221 876 776 1 185 148 58 155 131 68 143 111 81 28 4 1 0 2
0 0 0 0 0 0 0 0 336 1563 1760 1459 1058 1166 388 737 711 423 307 108 110 161 185 142 87 53 45 10 4 3 2 4
0 0 0 1 1 1 2 2 163 1550 1503 1298 904 768 308 492 578 466 265 250 200 177 118 60 39 19 35 4 4 2 5 5
0 0 0 2 3 2 3 3 2 1342 1206 1118 757 155 193 210 191 158 182 214 214 122 61 50 2 17 27 6 1 1 2 6
0 0 1 1 4 10 4 4 2 820 842 515 217 130 77 42 5 2 22 120 42 14 10 22 94 41 19 16 16 6 3 1
0 0 1 2 5 5 5 6 4 611 493 339 183 120 30 0 0 0 13 32 6 4 0 8 59 51 22 15 16 18 12 20
0 0 2 2 4 10 4 10 10 6 253 223 120 33 2 0 0 1 0 0 0 0 0 1 0 0 0 0 1 3 12 26
0 0 1 2 3 4 5 4 14 6 1 110 64 13 0 0 0 0 0 0 0 0 0 0 0 0 1 1 1 1 1 1
0 0 1 2 2 3 6 8 13 10 4 3 29 21 2 1 0 0 0 0 0 0 0 0 0 2 0 1 0 0 0 0
0 0 2 2 3 4 4 5 5 3 5 5 4 2 8 6 1 1 1 0 0 0 0 0 0 0 0 1 1 1 1 1
3 3 3 3 3 3 3 4 4 4 1 1 3 3 1 2 1 0 0 0 0 0 0 0 0 0 0 0 0 1 0 0
5 3 3 4 5 4 3 3 3 4 3 3 2 2 1 1 3 0 0 0 0 0 0 0 0 0 0 1 0 0 0 0
6 5 6 5 4 5 4 3 2 2 2 3 4 2 2 1 1 1 0 1 0 0 1 1 1 1 0 0 0 0 0 0
7 6 4 3 3 2 2 3 2 2 2 0 2 2 1 0 0 1 5 1 1 1 1 1 1 3 1 0 0 0 0 0
CIN
0 0 0 0 0 0 0 -390 -155 -143 -154 -174 -205 -212 -228 -237 -276 -276 -308 -359 -494 -453 -396 -361 -245 0 0 -1 0 -51 -66 -44
0 0 0 0 0 0 0 -124 -194 -102 -63 -104 -158 -179 -207 -198 -268 -264 -277 -304 -353 -311 -333 -394 -270 -197 0 0 0 -60 -60 -25
0 0 0 0 0 0 0 0 -274 -133 -108 -120 -135 -184 -184 -200 -195 -200 -269 -270 -283 -265 -276 -284 -308 0 -14 -127 -91 -60 -18 -6
0 0 0 0 0 0 0 0 -297 -160 -126 -114 -319 -256 -280 -244 -200 -246 -203 -237 -304 -273 -271 -287 -258 -157 -149 -121 -84 -2 -16 -9
0 0 0 0 0 0 0 0 0 -131 -95 -94 -165 -188 -189 -206 -265 -229 -117 -73 -271 -258 -275 -278 -284 -139 -89 -131 -112 -2 0 0
0 0 0 0 0 0 0 0 -403 -148 -106 -133 -202 -201 -224 -282 -254 -64 -239 -168 -316 -296 -282 -325 -198 -165 -141 -152 -146 -1 -1 -1
0 0 0 0 0 0 0 0 -445 -119 -106 -168 -260 -231 -399 -279 -263 -305 -268 -300 -291 -247 -239 -244 -221 -222 -185 -180 -160 -7 -4 -1
0 0 0 0 0 0 0 0 -190 -79 -101 -153 -274 -282 -419 -333 -326 -272 -272 -299 -280 -301 -331 -301 -293 -262 -195 -169 -181 -1 -2 0
0 0 0 0 0 0 0 0 0 -70 -115 -139 -226 -479 -445 -416 -345 -405 -377 -357 -323 -360 -352 -307 -229 -261 -180 -207 0 -35 -14 -3
0 0 0 0 0 0 0 0 0 -117 -127 -184 -318 -407 -437 -427 -387 -275 -326 -411 -481 -466 -391 -314 -200 -186 -198 -179 -150 -122 -11 -11
0 0 0 0 0 0 0 0 0 -111 -134 -159 -270 -322 -395 0 0 0 -357 -464 -492 -262 0 -326 -214 -198 -186 -162 -128 -97 -3 -65
0 0 0 0 0 0 0 0 0 0 -141 -157 -281 -335 -326 0 0 0 0 0 0 0 0 -43 0 0 0 0 -10 -5 -13 -39
0 0 0 0 0 0 0 0 0 0 -1 -165 -257 -346 -59 0 0 0 0 0 0 0 0 0 0 0 0 0 0 0 -3 0
0 0 0 0 0 0 0 0 0 0 0 -55 -118 -218 -34 0 0 0 0 0 0 0 0 0 -2 -1 0 -40 0 0 0 0
0 0 0 0 0 0 0 0 0 0 0 0 0 0 -23 -47 0 0 0 0 0 0 0 0 0 0 0 0 -76 0 0 0
0 0 0 0 0 0 0 0 0 0 0 0 0 0 0 0 0 0 0 0 0 0 0 0 0 0 0 0 0 0 0 0
0 0 0 0 0 0 0 0 0 0 0 0 0 0 0 0 0 0 0 0 0 0 0 0 0 0 0 0 0 0 0 0
0 0 0 0 0 0 0 0 0 0 0 0 0 0 0 0 0 0 0 0 0 0 0 0 0 0 0 0 0 0 0 0
0 0 0 0 0 0 0 0 0 0 0 0 0 0 0 0 0 0 0 0 0 0 0 0 0 0 0 0 0 0 0 0
Wind_Speed
13 12 12 12 14 10 12 11 16 17 12 10 9 9 9 9 9 11 13 9 12 9 7 7 8 7 6 6 8 5 5 6
8 11 12 14 9 13 11 10 15 12 11 11 10 13 11 10 11 15 15 11 12 10 7 8 8 8 8 8 5 9 4 5
13 14 10 10 13 10 13 14 14 15 13 13 7 11 11 9 7 9 13 14 13 10 10 9 10 7 8 9 8 4 4 9
15 15 15 12 13 12 12 12 15 15 17 11 4 6 5 4 7 8 9 13 14 12 11 10 10 9 8 10 9 10 6 7
12 14 16 16 14 13 14 13 16 15 16 15 18 13 11 10 10 8 6 9 12 12 12 10 13 9 9 10 8 8 6 8
15 15 16 18 15 15 14 15 15 15 16 18 15 13 8 7 8 14 13 11 10 11 11 13 10 8 9 10 10 9 8 7
14 15 16 16 14 15 15 16 15 13 17 17 17 16 11 11 12 10 11 10 8 11 12 10 9 9 10 9 9 10 9 8
13 17 19 19 19 19 17 17 17 11 14 14 13 11 12 15 17 14 15 10 9 11 10 9 8 10 9 9 9 10 9 9
13 16 17 18 20 20 19 19 19 9 10 10 8 7 5 4 6 8 10 10 9 10 9 8 11 8 8 9 8 7 9 8
16 17 18 18 19 20 18 19 18 9 9 9 9 9 8 6 6 5 7 9 7 8 8 8 9 10 10 10 6 8 9 10
16 16 17 17 18 19 19 17 17 4 5 7 8 8 8 9 9 7 10 8 7 8 9 9 9 8 8 8 6 7 9 8
14 15 15 15 16 17 18 18 18 14 4 6 9 7 9 8 7 7 9 11 9 9 10 9 7 6 6 5 5 6 9 9
14 15 16 17 17 19 19 18 17 16 13 1 6 9 7 13 9 8 8 9 8 7 8 7 6 6 6 6 7 7 9 10
15 15 16 17 18 19 18 17 17 16 13 10 1 7 5 8 10 9 8 8 6 6 6 6 6 6 5 5 6 6 8 8
14 15 16 16 16 16 17 18 17 16 14 14 12 12 1 8 9 10 10 9 8 7 7 7 5 4 4 1 4 4 6 4
14 15 15 15 17 16 16 15 16 14 14 16 15 13 15 11 7 10 11 10 9 8 8 7 6 7 6 5 3 3 4 5
14 15 15 16 16 16 16 16 16 15 15 14 13 15 15 13 14 12 13 10 10 10 10 9 8 7 11 11 3 6 7 6
13 14 13 13 14 14 14 14 15 15 15 14 11 14 13 18 15 10 13 11 10 12 11 10 10 9 15 16 14 9 9 8
11 10 11 13 13 13 12 13 15 16 16 17 16 15 13 16 11 14 13 12 13 11 11 10 10 10 16 18 17 12 11 11
Wind_Direction
327 322 323 324 310 253 241 222 211 202 201 190 186 188 185 185 190 191 184 185 178 169 162 161 170 175 177 164 171 173 168 169
310 320 326 323 333 329 254 223 215 197 196 192 190 196 193 198 187 188 184 182 178 170 163 165 175 179 178 173 162 163 150 151
324 325 325 327 318 317 321 251 218 200 195 199 191 192 203 199 184 198 177 177 177 174 167 172 178 172 177 174 173 156 167 173
322 327 320 328 323 320 307 300 254 208 197 188 120 119 89 129 175 175 200 182 169 175 174 175 176 179 188 183 177 178 178 186
320 326 324 323 323 320 308 300 286 218 190 187 190 189 180 191 184 148 161 216 177 167 185 182 189 178 186 182 183 193 181 197
322 327 327 317 326 318 313 308 279 215 191 191 191 193 181 162 174 163 178 188 155 168 184 191 186 182 189 175 179 192 194 205
326 329 331 320 326 328 326 319 287 204 196 192 193 190 164 158 164 163 176 175 160 184 184 183 189 183 185 176 182 190 194 204
347 341 338 331 336 339 332 330 312 200 201 202 191 187 178 173 169 172 171 168 174 179 170 178 184 189 185 173 181 186 195 203
11 343 339 336 339 338 334 330 325 184 185 197 186 151 149 157 193 173 171 173 166 159 165 179 190 171 183 189 188 187 196 205
358 348 343 346 344 337 334 327 324 232 180 173 168 155 149 146 150 177 188 154 144 156 175 187 190 189 185 183 182 190 199 203
355 353 345 346 342 339 336 334 333 258 143 164 154 150 141 145 123 186 168 140 140 167 181 195 183 176 179 182 193 202 207 211
355 347 348 350 344 345 341 349 345 349 127 162 143 144 144 139 135 165 164 159 155 169 179 162 153 161 170 171 196 206 221 223
357 355 349 353 355 353 349 349 346 350 344 133 154 149 149 125 181 179 176 146 146 164 153 145 162 178 192 196 216 213 227 233
353 359 358 358 353 354 352 352 351 352 1 1 314 91 140 139 181 159 136 128 127 138 140 154 172 183 174 196 206 213 231 238
351 358 0 360 355 352 352 355 356 1 2 22 19 9 163 173 166 143 133 127 118 100 79 68 61 67 69 278 217 225 229 221
3 358 358 360 357 354 358 359 359 358 19 25 18 20 23 11 96 100 87 83 81 85 94 81 60 50 21 321 321 227 129 97
4 3 0 2 360 355 357 0 2 6 23 25 21 30 33 23 12 74 80 75 77 78 65 66 55 46 13 22 113 86 73 86
8 4 3 0 358 357 1 1 5 14 18 22 24 53 45 33 28 39 68 71 74 71 67 64 59 43 46 53 57 66 65 59
13 8 6 3 2 4 6 12 16 18 20 23 22 36 40 51 30 36 48 61 62 64 61 62 65 51 53 67 71 69 65 54